Location: NJAA Observatory
(40.6819°N, 74.8979°W)
Time: 12:00:06
(UTC-04:00)

Iridium 84 - Visible Passes

Search period start: 20 September 2014 00:00
Search period end: 30 September 2014 00:00
Orbit: 774 x 781 km, 86.4° (Epoch: 20 September)

Date Brightness Start Highest point End Pass type
(mag) Time Alt. Az. Time Alt. Az. Time Alt. Az.
20 Sep 6.9 03:45:06 33° ESE 03:45:47 35° E 03:50:27 10° NNE visible
20 Sep 6.5 05:25:37 25° W 05:26:32 26° WNW 05:30:51 10° NNW visible
21 Sep 7.8 03:12:16 19° E 03:12:31 19° E 03:16:06 10° NE visible
21 Sep 5.7 04:52:46 47° W 04:52:49 47° W 04:57:50 10° N visible
22 Sep 5.6 04:19:53 69° N 04:19:53 69° N 04:24:27 10° N visible
23 Sep 6.6 03:46:57 42° NE 03:46:57 42° NE 03:50:47 10° NNE visible
23 Sep 7.0 05:27:27 18° WNW 05:27:27 18° WNW 05:30:20 10° NNW visible
24 Sep 7.6 03:13:59 23° NE 03:13:59 23° NE 03:16:45 10° NNE visible
24 Sep 6.6 04:54:29 28° NW 04:54:29 28° NW 04:57:39 10° NNW visible
25 Sep 8.3 02:40:59 13° NE 02:40:59 13° NE 02:42:03 10° NE visible
25 Sep 6.6 04:21:29 34° NNW 04:21:29 34° NNW 04:24:28 10° N visible
26 Sep 7.1 03:48:27 29° NNE 03:48:27 29° NNE 03:50:58 10° N visible
26 Sep 7.6 05:28:57 11° NW 05:28:57 11° NW 05:29:16 10° NW visible
27 Sep 7.8 03:15:24 20° NNE 03:15:24 20° NNE 03:17:10 10° NNE visible
27 Sep 7.4 04:55:54 16° NW 04:55:54 16° NW 04:57:17 10° NNW visible
28 Sep 8.4 02:42:19 13° NE 02:42:19 13° NE 02:42:56 10° NNE visible
28 Sep 7.4 04:22:49 19° NNW 04:22:49 19° NNW 04:24:22 10° NNW visible
29 Sep 7.6 03:49:42 18° N 03:49:42 18° N 03:51:03 10° N visible
